W9IF-4 Weather Reports


Display with metric or nautical units.
time (UTC)temp
F
wind
direction
speed
MPH
gust
MPH
rain 1hr
in
rain 24hr
in
rain mn
in
humidity
%
barometer
mb
20180217210410 67 321 0.0 0.0 0.00 0.00 0.00 1026.4
20180217210310 66 321 0.0 0.0 0.00 0.00 0.00 1026.4
20180217210210 67 321 0.0 0.0 0.00 0.00 0.00 1026.4
20180217210110 67 321 0.0 0.0 0.00 0.00 0.00 1026.5
20180217210010 67 321 0.0 0.0 0.00 0.00 0.00 1026.5
20180217205910 67 321 0.0 0.0 0.00 0.00 0.00 1026.6
20180217205810 67 321 0.0 0.0 0.00 0.00 0.00 1026.5
20180217205710 66 321 0.0 0.0 0.00 0.00 0.00 1026.6
20180217205610 66 321 0.0 0.0 0.00 0.00 0.00 1026.6
20180217205510 66 321 0.0 0.0 0.00 0.00 0.00 1026.7
20180217205410 66 321 0.0 0.0 0.00 0.00 0.00 1026.7
20180217205310 66 321 0.0 0.0 0.00 0.00 0.00 1026.7
20180217205110 65 321 0.0 0.0 0.00 0.00 0.00 1026.8
20180217205010 65 321 0.0 0.0 0.00 0.00 0.00 1026.8
20180217204910 66 321 0.0 0.0 0.00 0.00 0.00 1026.7
20180217204810 66 321 0.0 0.0 0.00 0.00 0.00 1026.8
20180217204710 66 321 0.0 0.0 0.00 0.00 0.00 1026.8
20180217204610 66 321 0.0 0.0 0.00 0.00 0.00 1026.8
20180217204510 66 321 0.0 0.0 0.00 0.00 0.00 1026.8
20180217204410 66 321 0.0 0.0 0.00 0.00 0.00 1026.8
20180217204110 66 314 7.0 0.0 0.00 0.00 0.00 1026.9
20180217204009 67 294 5.0 0.0 0.00 0.00 0.00 1026.9
20180217203910 67 318 3.0 0.0 0.00 0.00 0.00 1026.9
20180217203810 67 333 5.0 0.0 0.00 0.00 0.00 1027.0
20180217203610 67 319 6.0 0.0 0.00 0.00 0.00 1027.0
20180217203510 67 307 3.0 0.0 0.00 0.00 0.00 1027.0
20180217203309 66 308 4.0 0.0 0.00 0.00 0.00 1027.0
20180217203210 66 312 5.0 0.0 0.00 0.00 0.00 1027.0
20180217203010 65 319 5.0 0.0 0.00 0.00 0.00 1027.1
20180217202910 66 318 6.0 0.0 0.00 0.00 0.00 1027.1
20180217202710 66 343 0.0 0.0 0.00 0.00 0.00 1027.1
20180217202610 66 343 0.0 0.0 0.00 0.00 0.00 1027.1
20180217202509 66 343 0.0 0.0 0.00 0.00 0.00 1027.2
20180217202409 66 343 0.0 0.0 0.00 0.00 0.00 1027.2
20180217202210 66 343 0.0 0.0 0.00 0.00 0.00 1027.2
20180217202110 66 343 0.0 0.0 0.00 0.00 0.00 1027.3
20180217202010 66 343 0.0 0.0 0.00 0.00 0.00 1027.3
20180217201909 66 343 0.0 0.0 0.00 0.00 0.00 1027.3
20180217201810 66 343 0.0 0.0 0.00 0.00 0.00 1027.3
20180217201710 66 343 0.0 0.0 0.00 0.00 0.00 1027.3
20180217201610 66 343 0.0 0.0 0.00 0.00 0.00 1027.3
20180217201509 65 343 0.0 0.0 0.00 0.00 0.00 1027.3
20180217201309 66 343 0.0 0.0 0.00 0.00 0.00 1027.4
20180217201210 66 343 0.0 0.0 0.00 0.00 0.00 1027.3
20180217201109 66 343 0.0 0.0 0.00 0.00 0.00 1027.4
20180217201010 66 343 0.0 0.0 0.00 0.00 0.00 1027.4
20180217200910 67 343 0.0 0.0 0.00 0.00 0.00 1027.4
20180217200709 68 343 0.0 0.0 0.00 0.00 0.00 1027.4
20180217200610 67 343 0.0 0.0 0.00 0.00 0.00 1027.4
20180217200510 67 343 0.0 0.0 0.00 0.00 0.00 1027.4
20180217200310 67 343 0.0 0.0 0.00 0.00 0.00 1027.5
20180217200209 67 315 0.0 0.0 0.00 0.00 0.00 1027.5
20180217200109 67 300 0.0 0.0 0.00 0.00 0.00 1027.5
20180217200009 68 300 0.0 0.0 0.00 0.00 0.00 1027.6
20180217195809 67 300 0.0 0.0 0.00 0.00 0.00 1027.6
20180217195710 67 300 0.0 0.0 0.00 0.00 0.00 1027.6
20180217195609 67 300 3.0 0.0 0.00 0.00 0.00 1027.7
20180217195510 66 330 4.0 0.0 0.00 0.00 0.00 1027.6
20180217195410 67 315 5.0 0.0 0.00 0.00 0.00 1027.7
20180217195310 66 345 3.0 0.0 0.00 0.00 0.00 1027.7
20180217195209 67 316 5.0 0.0 0.00 0.00 0.00 1027.7
20180217195109 68 322 6.0 0.0 0.00 0.00 0.00 1027.7
20180217195009 67 316 0.0 0.0 0.00 0.00 0.00 1027.7
20180217194910 67 316 0.0 0.0 0.00 0.00 0.00 1027.7
20180217194809 66 316 0.0 0.0 0.00 0.00 0.00 1027.8
20180217194709 66 316 0.0 0.0 0.00 0.00 0.00 1027.8
20180217194609 66 316 0.0 0.0 0.00 0.00 0.00 1027.8
20180217194509 66 316 0.0 0.0 0.00 0.00 0.00 1027.8
20180217194309 65 316 0.0 0.0 0.00 0.00 0.00 1027.8
20180217194209 65 316 0.0 0.0 0.00 0.00 0.00 1027.8
20180217194109 65 316 0.0 0.0 0.00 0.00 0.00 1027.8
20180217194009 64 316 0.0 0.0 0.00 0.00 0.00 1027.9
20180217193809 66 316 0.0 0.0 0.00 0.00 0.00 1027.9
20180217193709 66 316 0.0 0.0 0.00 0.00 0.00 1027.9
20180217193609 66 316 0.0 0.0 0.00 0.00 0.00 1027.9
20180217193509 67 316 0.0 0.0 0.00 0.00 0.00 1027.9
20180217193409 67 316 0.0 0.0 0.00 0.00 0.00 1027.9
20180217193309 68 316 0.0 0.0 0.00 0.00 0.00 1027.9
20180217193209 67 316 0.0 0.0 0.00 0.00 0.00 1027.9
20180217193110 66 316 0.0 0.0 0.00 0.00 0.00 1027.9
20180217193010 65 316 0.0 0.0 0.00 0.00 0.00 1028.0
20180217192909 65 316 0.0 0.0 0.00 0.00 0.00 1028.0
20180217192809 65 316 0.0 0.0 0.00 0.00 0.00 1028.0
20180217192710 65 316 0.0 0.0 0.00 0.00 0.00 1028.1
20180217192609 64 316 0.0 0.0 0.00 0.00 0.00 1028.1
20180217192509 66 316 0.0 0.0 0.00 0.00 0.00 1028.1
20180217192409 66 316 0.0 0.0 0.00 0.00 0.00 1028.1
20180217192309 66 328 4.0 0.0 0.00 0.00 0.00 1028.1
20180217192209 66 323 0.0 0.0 0.00 0.00 0.00 1028.1
20180217192109 65 323 0.0 0.0 0.00 0.00 0.00 1028.1
20180217192009 65 323 0.0 0.0 0.00 0.00 0.00 1028.0
20180217191909 64 323 0.0 0.0 0.00 0.00 0.00 1028.1
20180217191809 64 323 0.0 0.0 0.00 0.00 0.00 1028.1
20180217191709 64 323 0.0 0.0 0.00 0.00 0.00 1028.1
20180217191609 63 323 0.0 0.0 0.00 0.00 0.00 1028.1
20180217191510 64 323 0.0 0.0 0.00 0.00 0.00 1028.1
20180217191409 64 323 0.0 0.0 0.00 0.00 0.00 1028.1
20180217191309 64 323 0.0 0.0 0.00 0.00 0.00 1028.1
20180217191209 63 323 0.0 0.0 0.00 0.00 0.00 1028.1
20180217191109 63 323 0.0 0.0 0.00 0.00 0.00 1028.2
20180217191009 64 323 0.0 0.0 0.00 0.00 0.00 1028.2
20180217190909 64 323 0.0 0.0 0.00 0.00 0.00 1028.2
20180217190809 64 323 0.0 0.0 0.00 0.00 0.00 1028.2
20180217190709 64 323 0.0 0.0 0.00 0.00 0.00 1028.2
20180217190509 64 323 0.0 0.0 0.00 0.00 0.00 1028.3
20180217190409 65 323 0.0 0.0 0.00 0.00 0.00 1028.3
20180217190309 65 323 0.0 0.0 0.00 0.00 0.00 1028.3
20180217190209 65 323 0.0 0.0 0.00 0.00 0.00 1028.3
20180217190109 65 323 0.0 0.0 0.00 0.00 0.00 1028.3
20180217190009 66 323 0.0 0.0 0.00 0.00 0.00 1028.3
20180217185809 66 323 0.0 0.0 0.00 0.00 0.00 1028.4
20180217185609 66 305 5.0 0.0 0.00 0.00 0.00 1028.4
20180217185509 65 308 5.0 0.0 0.00 0.00 0.00 1028.4
20180217185309 65 325 0.0 0.0 0.00 0.00 0.00 1028.4
20180217185209 66 325 0.0 0.0 0.00 0.00 0.00 1028.4
20180217185109 66 325 0.0 0.0 0.00 0.00 0.00 1028.4
20180217185010 66 325 0.0 0.0 0.00 0.00 0.00 1028.4
20180217184909 67 325 0.0 0.0 0.00 0.00 0.00 1028.4
20180217184809 66 325 0.0 0.0 0.00 0.00 0.00 1028.4
20180217184609 68 325 0.0 0.0 0.00 0.00 0.00 1028.4
20180217184509 67 325 0.0 0.0 0.00 0.00 0.00 1028.5
20180217184409 66 325 0.0 0.0 0.00 0.00 0.00 1028.5
20180217184309 66 325 0.0 0.0 0.00 0.00 0.00 1028.5
20180217184209 65 325 0.0 0.0 0.00 0.00 0.00 1028.5
20180217184109 65 325 0.0 0.0 0.00 0.00 0.00 1028.5
20180217184009 64 325 0.0 0.0 0.00 0.00 0.00 1028.5
20180217183909 64 325 0.0 0.0 0.00 0.00 0.00 1028.5
20180217183809 63 325 0.0 0.0 0.00 0.00 0.00 1028.5
20180217183709 63 325 0.0 0.0 0.00 0.00 0.00 1028.5
20180217183609 63 325 0.0 0.0 0.00 0.00 0.00 1028.5
20180217183509 64 325 0.0 0.0 0.00 0.00 0.00 1028.5
20180217183409 64 325 0.0 0.0 0.00 0.00 0.00 1028.5
20180217183209 64 325 0.0 0.0 0.00 0.00 0.00 1028.6
20180217183109 64 325 0.0 0.0 0.00 0.00 0.00 1028.6
20180217183009 64 325 0.0 0.0 0.00 0.00 0.00 1028.6
20180217182909 64 325 0.0 0.0 0.00 0.00 0.00 1028.5
20180217182609 64 325 0.0 0.0 0.00 0.00 0.00 1028.5
20180217182509 63 325 0.0 0.0 0.00 0.00 0.00 1028.5
20180217182309 63 325 0.0 0.0 0.00 0.00 0.00 1028.5
20180217182209 62 325 0.0 0.0 0.00 0.00 0.00 1028.5
20180217182009 62 325 0.0 0.0 0.00 0.00 0.00 1028.5
20180217181909 62 325 0.0 0.0 0.00 0.00 0.00 1028.5
20180217181709 63 323 4.0 0.0 0.00 0.00 0.00 1028.5
20180217181610 64 325 4.0 0.0 0.00 0.00 0.00 1028.5
20180217181509 63 156 0.0 0.0 0.00 0.00 0.00 1028.5
20180217181209 63 156 0.0 0.0 0.00 0.00 0.00 1028.5
20180217181109 63 156 0.0 0.0 0.00 0.00 0.00 1028.5
20180217181009 63 156 0.0 0.0 0.00 0.00 0.00 1028.5
20180217180909 64 156 0.0 0.0 0.00 0.00 0.00 1028.5
20180217180809 64 156 0.0 0.0 0.00 0.00 0.00 1028.5
20180217180709 65 156 0.0 0.0 0.00 0.00 0.00 1028.5
20180217180609 64 156 0.0 0.0 0.00 0.00 0.00 1028.5
20180217180409 64 156 0.0 0.0 0.00 0.00 0.00 1028.4
20180217180309 64 156 0.0 0.0 0.00 0.00 0.00 1028.5
20180217180209 64 156 0.0 0.0 0.00 0.00 0.00 1028.4
20180217180109 64 156 0.0 0.0 0.00 0.00 0.00 1028.4
20180217180009 65 156 0.0 0.0 0.00 0.00 0.00 1028.5
20180217175609 65 156 0.0 0.0 0.00 0.00 0.00 1028.4
20180217175309 66 156 0.0 0.0 0.00 0.00 0.00 1028.4
20180217175109 66 156 0.0 0.0 0.00 0.00 0.00 1028.4
20180217175009 66 156 0.0 0.0 0.00 0.00 0.00 1028.4
20180217174909 67 156 0.0 0.0 0.00 0.00 0.00 1028.4
20180217174809 67 156 0.0 0.0 0.00 0.00 0.00 1028.4
20180217174709 67 156 0.0 0.0 0.00 0.00 0.00 1028.3
20180217174609 67 156 0.0 0.0 0.00 0.00 0.00 1028.4
20180217174509 67 156 0.0 0.0 0.00 0.00 0.00 1028.3
20180217174409 67 156 0.0 0.0 0.00 0.00 0.00 1028.3
20180217174309 67 156 0.0 0.0 0.00 0.00 0.00 1028.3
20180217174209 67 156 0.0 0.0 0.00 0.00 0.00 1028.3
20180217174109 67 156 0.0 0.0 0.00 0.00 0.00 1028.3
20180217174009 66 156 0.0 0.0 0.00 0.00 0.00 1028.3
20180217173909 65 156 0.0 0.0 0.00 0.00 0.00 1028.3
20180217173809 65 156 0.0 0.0 0.00 0.00 0.00 1028.3
20180217173709 65 156 0.0 0.0 0.00 0.00 0.00 1028.3
20180217173609 66 156 0.0 0.0 0.00 0.00 0.00 1028.2
20180217173509 66 156 0.0 0.0 0.00 0.00 0.00 1028.3
20180217173409 66 156 0.0 0.0 0.00 0.00 0.00 1028.2
20180217173309 66 156 0.0 0.0 0.00 0.00 0.00 1028.2
20180217173109 66 156 0.0 0.0 0.00 0.00 0.00 1028.2
20180217173009 66 156 0.0 0.0 0.00 0.00 0.00 1028.2
20180217172909 66 156 0.0 0.0 0.00 0.00 0.00 1028.2
20180217172809 66 156 0.0 0.0 0.00 0.00 0.00 1028.2
20180217172509 66 156 0.0 0.0 0.00 0.00 0.00 1028.1
20180217172309 68 156 0.0 0.0 0.00 0.00 0.00 1028.1
20180217172209 68 156 0.0 0.0 0.00 0.00 0.00 1028.1
20180217172009 68 156 0.0 0.0 0.00 0.00 0.00 1028.1
20180217171809 69 156 0.0 0.0 0.00 0.00 0.00 1028.1
20180217171709 69 156 0.0 0.0 0.00 0.00 0.00 1028.0
20180217171609 69 156 0.0 0.0 0.00 0.00 0.00 1028.0
20180217171509 68 156 0.0 0.0 0.00 0.00 0.00 1028.0
20180217171409 67 156 0.0 0.0 0.00 0.00 0.00 1028.0
20180217171109 68 156 0.0 0.0 0.00 0.00 0.00 1028.0
20180217171009 67 156 0.0 0.0 0.00 0.00 0.00 1028.0
20180217170809 66 156 0.0 0.0 0.00 0.00 0.00 1028.0
20180217170709 66 156 0.0 0.0 0.00 0.00 0.00 1028.0
20180217170609 67 156 0.0 0.0 0.00 0.00 0.00 1027.9